Regional Weather Roundup
Issued by NWS

Home | Current Version | Previous Version | Graphics & Text | Print | Product List | Glossary On
Versions: 1 2 3 4 5 6 7 8 9 10 11 12 13 14 15 16 17 18 19 20 21 22 23 24 25 26 27 28 29 30 31 32 33 34 35 36 37 38 39 40 41 42 43 44 45 46 47 48 49 50
000
ASUS45 KPSR 221010
RWRAZ

ARIZONA REGIONAL HOURLY WEATHER ROUNDUP
NATIONAL WEATHER SERVICE PHOENIX AZ
300 AM MST FRI AUG 22 2014

NOTE: FAIR INDICATES FEW OR NO CLOUDS BELOW 12,000 FEET WITH NO
SIGNIFICANT WEATHER AND/OR OBSTRUCTIONS TO VISIBILITY.

AZZ001>003-036-221100-
NORTHWEST ARIZONA

CITY           SKY/WX    TMP DP  RH WIND       PRES   REMARKS
BULLHEAD CITY  FAIR      75  59  57 S3        29.94S
KINGMAN        FAIR      62  55  77 S5        30.06S
$$

AZZ004>008-015-016-018-221100-
NORTH CENTRAL ARIZONA

CITY           SKY/WX    TMP DP  RH WIND       PRES   REMARKS
GRAND CANYON     N/A    N/A N/A N/A MISG        N/A
WILLIAMS       MOCLDY    54  52  94 SE7       30.30S
PRESCOTT       CLOUDY    61  56  83 CALM      30.16S
FLAGSTAFF      RAIN      53  51  93 CALM      30.27S FOG
PAYSON         FAIR      59  55  88 CALM      30.18F
PAGE           FAIR      66  56  70 CALM      30.11S
$$

AZZ009>014-017-221100-
NORTHEAST ARIZONA

CITY           SKY/WX    TMP DP  RH WIND       PRES   REMARKS
WINSLOW        MOCLDY    60  58  92 CALM      30.16F
SAINT JOHNS    FAIR      59  57  93 SW5       30.19S
SHOW LOW       FAIR      52  50  93 CALM      30.26S
$$

AZZ023-221100-
GREATER PHOENIX AREA

CITY           SKY/WX    TMP DP  RH WIND       PRES   REMARKS
PHOENIX        FAIR      74  65  73 E3        29.95R
BUCKEYE          N/A     68  68 100 NE3       29.96R
LUKE AFB       NOT AVBL
DEER VALLEY    FAIR      70  65  84 W3        29.96S
SCOTTSDALE     FAIR      70  66  87 CALM      29.98R
MESA-GATEWAY   FAIR      72  64  78 W6        29.99R
$$

AZZ027-028-221100-
SOUTHWEST MARICOPA COUNTY AND PINAL COUNTY

CITY           SKY/WX    TMP DP  RH WIND       PRES   REMARKS
CASA GRANDE    FAIR      68  61  77 CALM      29.98S
$$

AZZ503-504-507>509-221100-
SOUTHEAST ARIZONA

CITY           SKY/WX    TMP DP  RH WIND       PRES   REMARKS
TUCSON         FAIR      70  62  76 CALM      30.05F
DAVIS-MONTHAN  FAIR      69  63  81 VRB1      30.04S
NOGALES        FAIR      64  62  93 CALM      30.10S
SIERRA VISTA   CLOUDY    64  59  82 W6        30.15S
DOUGLAS        FAIR      63  61  93 NW6       30.12S
SAFFORD        FAIR      72  59  63 NW8       30.03R
$$

AZZ020-021-025-026-031-221100-
SOUTHWEST ARIZONA

CITY           SKY/WX    TMP DP  RH WIND       PRES   REMARKS
YUMA           FAIR      72  65  78 N6        29.91S
$$

CAZ031-033-041-043-047-048-061-221100-
SOUTHERN CALIFORNIA

CITY           SKY/WX    TMP DP  RH WIND       PRES   REMARKS
DOWNTOWN L.A.  FAIR      67  62  84 CALM      29.95R
L.A. AIRPORT   FAIR      68  62  81 W7        29.95S
SAN DIEGO      MOCLDY    70  64  81 CALM      29.96S
BURBANK        FAIR      69  60  73 SE5       29.95S
ONTARIO        FAIR      71  61  70 SW3       29.96S
RIVERSIDE      FAIR      70  61  73 CALM      29.96S
PALM SPRINGS   FAIR      77  60  55 CALM      29.91S
EL CENTRO NAS  FAIR      70  66  87 E6        29.89S
IMPERIAL       FAIR      71  67  87 SE6       29.89S
BLYTHE         FAIR      70  67  90 NW3       29.92F
NEEDLES        FAIR      76  59  55 W3        29.94S
$$

NVZ020-UTZ003-221100-
SOUTHERN NEVADA-UTAH

CITY           SKY/WX    TMP DP  RH WIND       PRES   REMARKS
LAS VEGAS      FAIR      73  52  47 S6        29.94S
SALT LAKE CITY MOCLDY    65  49  56 S6        29.98S
$$

NMZ009-TXZ055-221100-
NEW MEXICO-WEST TEXAS

CITY           SKY/WX    TMP DP  RH WIND       PRES   REMARKS
ALBUQUERQUE    CLOUDY    71  47  42 CALM      30.15R
EL PASO        LGT RAIN  69  64  84 SE3       30.11S
$$


........................KEY........................
SKY/WX - SKY CONDITION/WEATHER
TMP    - TEMPERATURE IN FAHRENHEIT
DP     - DEW POINT IN FAHRENHEIT
RH     - RELATIVE HUMIDITY IN PERCENT
WIND   - DIRECTION AND SPEED IN MILES PER HOUR (MPH)
VRB    - VARIABLE WIND DIRECTION
PRES   - MEAN SEA LEVEL PRESSURE IN INCHES OF MERCURY
         F - FALLING PRESSURE   R - RISING PRESSURE
         S - STEADY PRESSURE
VSB    - VISIBILITY IN MILES
HX     - HEAT INDEX IN FAHRENHEIT
WCI    - WIND CHILL INDEX IN FAHRENHEIT
TC     - TEMPERATURE IN CELSIUS WHICH IS ALSO KNOWN AS
         TEMPERATURE IN CENTIGRADE
AFB    - AIR FORCE BASE
         LUKE AFB IS LUKE AIR FORCE BASE
         DAVIS-MONTHAN IS DAVIS-MONTHAN AIR FORCE BASE
NAS    - NAVAL AIR STATION
         EL CENTRO NAS IS EL CENTRO NAVAL AIR STATION
N/A    - NOT AVAILABLE


USA.gov is the U.S. government's official web portal to all federal, state and local government web resources and services.